Back to catalog

CZ-4 DEB

AliveSSO
NORAD 26198·DEBRIS·🇨🇳 China

Launched Oct 14, 1999 from Taiyuan Satellite Launch Center

Loading…

Next Passes (next 24 hours)

TLE

FreshSource: Space-Track

Epoch: Sep 14, 2026, 02:04 UTC

1 26198U 99057CL  26257.08617243  .00000936  00000-0  22868-3 0  9996
2 26198  98.5104 314.0943 0067130 181.9384 178.1562 14.53658697395449

Track CZ-4 DEB in real time with AllMySat

Download on the App Store